Regional Weather Roundup
Issued by NWS Kansas City/Pleasant Hill, MO

Home | Current Version | Previous Version | Text Only | Print | Product List | Glossary On
Versions: 1 2 3 4 5 6 7 8 9 10 11 12 13 14 15 16 17 18 19 20 21 22 23 24 25 26 27 28 29 30 31 32 33 34 35 36 37 38 39 40 41 42 43 44 45 46 47 48 49 50
853
ASUS43 KEAX 200710
RWREAX

WEATHER ROUNDUP FOR EASTERN KANSAS AND NORTHWEST MISSOURI
NATIONAL WEATHER SERVICE KANSAS CITY/PLEASANT HILL MO
100 AM CST MON FEB 20 2017

KSZ040-057-103>105-MOZ028-029-037-043-200800-
...KANSAS CITY METROPOLITAN AREA...

CITY           SKY/WX    TMP DP  RH WIND       PRES   REMARKS
K.C. INTL      CLOUDY    62  55  77 SE13      29.87F
K.C. DOWNTOWN  CLOUDY    65  56  72 SE14      29.87F
LEES SUMMIT    MOCLDY    62  56  80 SE15      29.89F
OLATHE - IXD   CLOUDY    59  53  80 SE9       29.88F
OLATHE - OJC   CLOUDY    60  56  86 SE15      29.88S
LAWRENCE       MOCLDY    58  54  86 E12       29.85F

$$

MOZ001>008-011>017-020>025-030>033-038>040-044>046-053-054-200800-
...NORTHERN AND CENTRAL MISSOURI...

CITY           SKY/WX    TMP DP  RH WIND       PRES   REMARKS
ST. JOSEPH     CLOUDY    59  54  83 S8        29.86F
WARRENSBURG    CLOUDY    61  54  77 SE13      29.93S
WHITEMAN AFB   CLOUDY    60  60 100 S12       29.92F
CLINTON        MOCLDY    61  55  82 SE12      29.94S
SEDALIA        CLEAR     61  56  83 SE14      29.96F
WARSAW         NOT AVBL
CHILLICOTHE      N/A     62  54  74 S9        29.93S
KIRKSVILLE     MOCLDY    54  49  83 S7        29.96S

$$

MOZ041-047>049-056>058-063>065-088>090-097-200800-
...EASTERN AND SOUTHERN MISSOURI...

CITY           SKY/WX    TMP DP  RH WIND       PRES   REMARKS
ST. LOUIS INTL CLOUDY    58  53  84 SE9       30.04F
SPIRIT OF STL  CLOUDY    54  53  97 E5        30.02F
COLUMBIA       PTCLDY    59  55  87 S13       29.99S
JEFFERSON CITY PTCLDY    60  54  80 SE6       29.99S
ROLLA          CLEAR     58  55  90 S10       30.00F
OSAGE BEACH    CLEAR     60  55  83 SE7       30.00R
SPRINGFIELD    MOCLDY    60  56  86 SE17      29.97R
BRANSON        CLOUDY    59  57  94 SE13      30.01S
JOPLIN         CLOUDY    63  56  78 SE13      29.90F
WEST PLAINS    PTCLDY    56  54  93 SE3       30.05S

$$

IAZ060-094-KSZ022-034>040-054-083-096-NEZ052-066-093-200800-
...KANSAS...SOUTHEAST NEBRASKA AND IOWA...

CITY           SKY/WX    TMP DP  RH WIND       PRES   REMARKS
TOPEKA         CLOUDY    64  56  75 S15       29.83F
MANHATTAN      TSTM      60  58  92 S5        29.82S FOG
EMPORIA        TSTM      62  57  83 S18G29    29.84R
CHANUTE        CLOUDY    67  55  65 SE17G26   29.85F
WICHITA        RAIN      58  57  97 S7        29.81R
OMAHA          CLOUDY    58  52  80 S12       29.80F
LINCOLN        MOCLDY    59  54  83 S16       29.76F
FALLS CITY     CLOUDY    54  51  90 SE7       29.83S
LAMONI         CLOUDY    59  47  64 SE7       29.88F
DES MOINES     CLOUDY    59  47  64 SE10      29.89F

$$





USA.gov is the U.S. government's official web portal to all federal, state and local government web resources and services.